AirNav   Pilot Hours Calculator
 
 1497 users online  

5M5 Crystal Lake Airport
Decatur, Arkansas, USA

GOING TO DECATUR?


FAA INFORMATION EFFECTIVE 10 OCTOBER 2019

Location

FAA Identifier: 5M5
Lat/Long: 36-20-37.0000N 094-26-41.4000W
36-20.616667N 094-26.690000W
36.3436111,-94.4448333
(estimated)
Elevation: 1177.8 ft. / 359.0 m (surveyed)
Variation: 03E (2005)
From city: 2 miles NE of DECATUR, AR
Time zone: UTC -5 (UTC -6 during Standard Time)
Zip code: 72722

Airport Operations

Airport use: Open to the public
Activation date: 11/1955
Control tower: no
ARTCC: MEMPHIS CENTER
FSS: JONESBORO FLIGHT SERVICE STATION
NOTAMs facility: JBR (NOTAM-D service available)
Attendance: UNATNDD
Wind indicator: lighted
Segmented circle: no
Lights: SS-SR

Airport Communications

CTAF/UNICOM: 122.8
RAZORBACK APPROACH: 121.0
RAZORBACK DEPARTURE: 121.0
CLEARANCE DELIVERY: 121.725
WX ASOS at XNA (8 nm SE): 119.425 (479-203-0109)
WX AWOS-3PT at SLG (9 nm S): 118.375 (479-524-9893)
WX AWOS-3PT at VBT (11 nm E): 134.975 (479-273-9198)
WX AWOS-3PT at ROG (16 nm E): 134.375 (479-631-9196)
WX AWOS-3 at ASG (19 nm SE): 124.675 (479-750-2967)
  • APCH/DEP SVC PRVDD BY MEMPHIS ARTCC ON FREQS 126.1/269.0 (FAYETTEVILLE RCAG) WHEN RAZORBACK APCH CTL CLSD.

Nearby radio navigation aids

VOR radial/distance  VOR name  Freq  Var
RZCr286/16.7RAZORBACK VORTAC116.4004E
EOSr174/29.9NEOSHO VOR/DME117.3007E

 
NDB name  Hdg/Dist  Freq  Var  ID
SILOAM SPRINGS009/9.528404ESLG ... .-.. --.

Airport Services

Parking: hangars and tiedowns
Airframe service: NONE
Powerplant service: NONE
Bulk oxygen: NONE

Runway Information

Runway 13/31

Dimensions: 3863 x 75 ft. / 1177 x 23 m
Surface: asphalt, in fair condition
Weight bearing capacity: 
Single wheel: 10.0
Runway edge lights: low intensity
Runway edge markings: NSTD THLD MARKNIGS DUE TO SIZE.
Gradient: SE.
RUNWAY 13  RUNWAY 31
Latitude: 36-20.840745N36-20.393283N
Longitude: 094-26.969522W094-26.409873W
Elevation: 1154.0 ft.1176.4 ft.
Traffic pattern: leftleft
Runway heading: 131 magnetic, 134 true311 magnetic, 314 true
Markings: nonprecision, in good conditionnonprecision, in good condition
Visual slope indicator: 2-box VASI on left (3.50 degrees glide path)
VASI OTS INDEFLY.
2-box VASI on left (3.50 degrees glide path)
VASI OTS INDEFLY.
Touchdown point: yes, no lightsyes, no lights
Obstructions: 55 ft. trees, 450 ft. from runway, 185 ft. right of centerline, 4:1 slope to clear60 ft. trees, 720 ft. from runway, 220 ft. left of centerline, 8:1 slope to clear

Airport Ownership and Management from official FAA records

Ownership: Privately-owned
Owner: CRYSTAL LAKE FLY-IN COMMUNITY, LLC
33801 KANIS ROAD
PARON, AR 72122
Phone 501-351-4329
Manager: KRIS SHEWMAKE
33801 KANIS ROAD
PARON, AR 72722
Phone 501-351-4329

Airport Operational Statistics

Aircraft based on the field: 2
Single engine airplanes: 2
    
Aircraft operations: avg 46/month *
55% local general aviation
45% transient general aviation
* for 12-month period ending 31 July 2016

Additional Remarks

BE ALERT FOR +176 FT TWR APRXLY 1300 FT N OF RY 13.
DEER & GEESE ON & INVOF ARPT.
FOR CD CTC RAZORBACK APCH 479-649-2416, WHEN APCH CLSD CTC MEMPHIS ARTCC AT 901-368-8453.

Instrument Procedures

NOTE: All procedures below are presented as PDF files. If you need a reader for these files, you should download the free Adobe Reader.

NOT FOR NAVIGATION. Please procure official charts for flight.
FAA instrument procedures published for use from 10 October 2019 at 0901Z to 17 November 2019 at 0900Z.

 
IAPs - Instrument Approach Procedures
RNAV (GPS) RWY 13   download (199KB)
VOR RWY 13   download (172KB)
NOTE: Special Take-Off Minimums/Departure Procedures apply   download (179KB)

Other nearby airports with instrument procedures:

KXNA - Northwest Arkansas Regional Airport (8 nm SE)
KSLG - Smith Field Airport (9 nm S)
KVBT - Bentonville Municipal Airport/Louise M Thaden Field (11 nm E)
KROG - Rogers Executive Airport - Carter Field (16 nm E)
KASG - Springdale Municipal Airport (19 nm SE)
 
Loc | Ops | Rwys | IFR | FBO | Links
Com | Nav | Svcs | Stats | Notes
Area around 5M5 (Crystal Lake Airport)
 
Road maps at: MapQuest Bing Google
 
Aerial photo
WARNING: Photo may not be current or correct
Aerial photo of 5M5 (Crystal Lake Airport)
Photo courtesy of the Arkansas Department of Aeronautics
Taken in the Spring of 2007

Do you have a better or more recent aerial photo of Crystal Lake Airport that you would like to share? If so, please send us your photo.

 
Sectional chart

 
Airport distance calculator
Flying to Crystal Lake Airport? Find the distance to fly.

From to 5M5

Sunrise and sunset
Times for 17-Oct-2019
 Local
(UTC-5)
 Zulu
(UTC)
Morning civil twilight07:0212:02
Sunrise07:2812:28
Sunset18:3923:39
Evening civil twilight19:0500:05

Current date and time
Zulu (UTC)  17-Oct-2019 16:57:03
Local (UTC-5)  17-Oct-2019 11:57:03
 
METAR
KXNA 
8nm SE 
171553Z VRB04KT 10SM CLR 13/07 A3008 RMK AO2 SLP184 T01330072
KSLG 
9nm S 
171556Z AUTO 15004KT 10SM CLR 14/08 A3008 RMK AO2 SLP185 T01390078
KVBT 
11nm E 
171556Z AUTO 16004KT 7SM CLR 14/07 A3009 RMK AO2 SLP192 T01390072
KROG 
18nm E 
171558Z 20006KT 10SM CLR 14/07 A3008 RMK AO2 SLP184 T01440072
KASG 
19nm SE 
171548Z 19003KT 10SM CLR 13/09 A3009
TAF
KXNA 
8nm SE 
171126Z 1712/1812 17007KT P6SM SKC FM180000 16005KT P6SM SKC
KROG 
18nm E 
171126Z 1712/1812 00000KT 4SM BR SKC TEMPO 1712/1713 1/2SM FG VV001 FM171400 16008KT P6SM SKC FM180000 14006KT P6SM SKC
NOTAMs
Click for the latest NOTAMs
NOTAMs are issued by the DoD/FAA and will open in a separate window not controlled by AirNav.

 

 
 

Would you like to see your business listed on this page?

 If your business provides an interesting product or service to pilots, flight crews, aircraft, or users of the Crystal Lake Airport, you should consider listing it here.  To start the listing process, click on the button below
 
Add a business
 

Other Pages about Crystal Lake Airport

Update a link
 
Copyright © AirNav, LLC. All rights reserved. Privacy Policy  Contact